• în România
  • Lista ţărilor
  • Pe 7 zile
  • Temperatura apei
  • Hartă satelitară
  • Meteo pe hartă
  • Widget-uri
  • user-avatar
    Intrare

    Meteo pe oră la Oran

    Astăzi, 25 Aprilie, Marţi

    Timp Temperatura Precipitaţii Vânt Presiune Umiditate
    00:00 +18°C° 0 mm 1 m/s 750 mmHg 80%
    01:00 +18°C° 0,3 mm 1 m/s 750 mmHg 81%
    02:00 +18°C° 0,3 mm 1 m/s 749 mmHg 83%
    03:00 +18°C° 0,3 mm 1 m/s 749 mmHg 84%
    04:00 +19°C° 0,1 mm 1 m/s 749 mmHg 84%
    05:00 +19°C° 0,1 mm 1 m/s 749 mmHg 84%
    06:00 +19°C° 0 mm 2 m/s 749 mmHg 79%
    07:00 +20°C° 0 mm 2 m/s 749 mmHg 72%
    08:00 +23°C° 0 mm 1 m/s 749 mmHg 64%
    09:00 +25°C° 0 mm 1 m/s 749 mmHg 57%
    10:00 +26°C° 0 mm 2 m/s 748 mmHg 52%
    11:00 +27°C° 0 mm 2 m/s 748 mmHg 47%
    12:00 +28°C° 0 mm 3 m/s 748 mmHg 42%
    13:00 +28°C° 0 mm 3 m/s 748 mmHg 42%
    14:00 +28°C° 0 mm 3 m/s 747 mmHg 43%
    15:00 +28°C° 0 mm 3 m/s 747 mmHg 43%
    16:00 +27°C° 0 mm 3 m/s 747 mmHg 48%
    17:00 +25°C° 0 mm 3 m/s 746 mmHg 52%
    18:00 +24°C° 0 mm 3 m/s 746 mmHg 57%
    19:00 +21°C° 0 mm 3 m/s 746 mmHg 64%
    20:00 +19°C° 0 mm 3 m/s 747 mmHg 71%
    21:00 +18°C° 0 mm 3 m/s 747 mmHg 79%
    22:00 +17°C° 0 mm 4 m/s 747 mmHg 79%
    23:00 +17°C° 0 mm 4 m/s 747 mmHg 80%

    Mâine, 26 Aprilie, Miercuri

    Timp Temperatura Precipitaţii Vânt Presiune Umiditate
    00:00 +17°C° 0 mm 4 m/s 747 mmHg 81%
    01:00 +17°C° 0 mm 4 m/s 746 mmHg 81%
    02:00 +17°C° 0 mm 4 m/s 746 mmHg 81%
    03:00 +15°C° 0 mm 4 m/s 746 mmHg 81%
    04:00 +17°C° 0 mm 4 m/s 746 mmHg 81%
    05:00 +17°C° 0 mm 4 m/s 746 mmHg 80%
    06:00 +17°C° 0 mm 4 m/s 746 mmHg 80%
    07:00 +19°C° 0 mm 4 m/s 746 mmHg 71%
    08:00 +21°C° 0 mm 4 m/s 746 mmHg 61%
    09:00 +23°C° 0 mm 5 m/s 747 mmHg 52%
    10:00 +26°C° 0 mm 5 m/s 746 mmHg 48%
    11:00 +27°C° 0 mm 5 m/s 746 mmHg 43%
    12:00 +28°C° 0 mm 6 m/s 746 mmHg 39%
    13:00 +28°C° 0 mm 6 m/s 746 mmHg 40%
    14:00 +27°C° 0 mm 6 m/s 745 mmHg 40%
    15:00 +27°C° 0 mm 6 m/s 745 mmHg 41%
    16:00 +26°C° 0 mm 5 m/s 745 mmHg 44%
    17:00 +23°C° 0 mm 4 m/s 745 mmHg 46%
    18:00 +22°C° 0 mm 4 m/s 745 mmHg 49%
    19:00 +21°C° 0,1 mm 4 m/s 746 mmHg 54%
    20:00 +20°C° 0,1 mm 4 m/s 746 mmHg 59%
    21:00 +18°C° 0,1 mm 4 m/s 747 mmHg 64%
    22:00 +18°C° 0 mm 4 m/s 747 mmHg 65%
    23:00 +18°C° 0 mm 4 m/s 747 mmHg 66%

    Poimâine, 27 Aprilie, Joi

    Timp Temperatura Precipitaţii Vânt Presiune Umiditate
    00:00 +18°C° 0 mm 4 m/s 747 mmHg 67%
    01:00 +18°C° 0 mm 4 m/s 747 mmHg 66%
    02:00 +18°C° 0 mm 4 m/s 746 mmHg 66%
    03:00 +17°C° 0 mm 4 m/s 746 mmHg 65%
    04:00 +18°C° 0 mm 4 m/s 746 mmHg 64%
    05:00 +18°C° 0 mm 4 m/s 746 mmHg 63%
    06:00 +18°C° 0 mm 3 m/s 746 mmHg 62%
    07:00 +20°C° 0 mm 4 m/s 746 mmHg 55%
    08:00 +22°C° 0 mm 4 m/s 747 mmHg 47%
    09:00 +25°C° 0 mm 4 m/s 747 mmHg 40%
    10:00 +26°C° 0 mm 4 m/s 747 mmHg 39%
    11:00 +26°C° 0 mm 4 m/s 747 mmHg 38%
    12:00 +27°C° 0 mm 4 m/s 747 mmHg 37%
    13:00 +27°C° 0 mm 4 m/s 747 mmHg 37%
    14:00 +26°C° 0 mm 4 m/s 747 mmHg 38%
    15:00 +26°C° 0 mm 4 m/s 747 mmHg 39%
    16:00 +25°C° 0 mm 4 m/s 747 mmHg 44%
    17:00 +23°C° 0 mm 5 m/s 747 mmHg 49%
    18:00 +21°C° 0 mm 5 m/s 747 mmHg 55%
    19:00 +20°C° 0 mm 5 m/s 748 mmHg 66%
    20:00 +17°C° 0 mm 5 m/s 748 mmHg 76%
    21:00 +15°C° 0 mm 5 m/s 749 mmHg 87%
    22:00 +15°C° 0 mm 5 m/s 749 mmHg 89%
    23:00 +15°C° 0 mm 5 m/s 749 mmHg 91%

    28 Aprilie, Vineri

    Timp Temperatura Precipitaţii Vânt Presiune Umiditate
    00:00 +14°C° 0 mm 5 m/s 749 mmHg 93%
    01:00 +14°C° 0 mm 5 m/s 748 mmHg 94%
    02:00 +14°C° 0 mm 5 m/s 748 mmHg 94%
    03:00 +14°C° 0 mm 5 m/s 748 mmHg 95%
    04:00 +14°C° 0 mm 5 m/s 748 mmHg 93%
    05:00 +15°C° 0 mm 5 m/s 748 mmHg 92%
    06:00 +15°C° 0 mm 5 m/s 748 mmHg 91%
    07:00 +16°C° 0,1 mm 5 m/s 748 mmHg 83%
    08:00 +19°C° 0,1 mm 5 m/s 749 mmHg 76%
    09:00 +20°C° 0,1 mm 5 m/s 749 mmHg 68%
    10:00 +22°C° 0,1 mm 5 m/s 749 mmHg 63%
    11:00 +23°C° 0,1 mm 5 m/s 748 mmHg 58%
    12:00 +24°C° 0,1 mm 6 m/s 748 mmHg 52%
    13:00 +24°C° 0 mm 6 m/s 748 mmHg 53%
    14:00 +24°C° 0 mm 7 m/s 748 mmHg 53%
    15:00 +24°C° 0 mm 7 m/s 747 mmHg 53%
    16:00 +23°C° 0,1 mm 7 m/s 748 mmHg 58%
    17:00 +22°C° 0,1 mm 6 m/s 748 mmHg 63%
    18:00 +21°C° 0,1 mm 6 m/s 748 mmHg 68%
    19:00 +19°C° 0,1 mm 5 m/s 749 mmHg 74%
    20:00 +18°C° 0,1 mm 4 m/s 749 mmHg 80%
    21:00 +17°C° 0,1 mm 4 m/s 750 mmHg 86%
    22:00 +17°C° 0 mm 4 m/s 750 mmHg 88%
    23:00 +16°C° 0 mm 3 m/s 750 mmHg 89%

    29 Aprilie, Sâmbătă

    Timp Temperatura Precipitaţii Vânt Presiune Umiditate
    00:00 +16°C° 0 mm 3 m/s 749 mmHg 91%
    01:00 +16°C° 0 mm 3 m/s 749 mmHg 92%
    02:00 +16°C° 0 mm 2 m/s 749 mmHg 92%
    03:00 +16°C° 0 mm 2 m/s 749 mmHg 93%
    04:00 +16°C° 0 mm 2 m/s 749 mmHg 93%
    05:00 +16°C° 0 mm 2 m/s 749 mmHg 93%
    06:00 +16°C° 0 mm 2 m/s 749 mmHg 92%
    07:00 +18°C° 0 mm 2 m/s 749 mmHg 82%
    08:00 +20°C° 0 mm 2 m/s 749 mmHg 72%
    09:00 +23°C° 0 mm 1 m/s 749 mmHg 62%
    10:00 +24°C° 0 mm 2 m/s 749 mmHg 57%
    11:00 +25°C° 0 mm 3 m/s 749 mmHg 51%
    12:00 +27°C° 0 mm 4 m/s 749 mmHg 45%
    13:00 +27°C° 0 mm 4 m/s 749 mmHg 45%
    14:00 +27°C° 0 mm 4 m/s 748 mmHg 45%
    15:00 +27°C° 0 mm 4 m/s 748 mmHg 45%
    16:00 +26°C° 0 mm 3 m/s 748 mmHg 49%
    17:00 +25°C° 0 mm 3 m/s 748 mmHg 52%
    18:00 +23°C° 0 mm 2 m/s 748 mmHg 55%
    19:00 +21°C° 0 mm 2 m/s 749 mmHg 64%
    20:00 +20°C° 0 mm 1 m/s 749 mmHg 72%
    21:00 +18°C° 0 mm 1 m/s 750 mmHg 80%
    22:00 +16°C° 0 mm 1 m/s 750 mmHg 82%
    23:00 +16°C° 0 mm 1 m/s 749 mmHg 83%

    30 Aprilie, Duminică

    Timp Temperatura Precipitaţii Vânt Presiune Umiditate
    00:00 +16°C° 0 mm 2 m/s 749 mmHg 84%
    01:00 +16°C° 0 mm 2 m/s 749 mmHg 85%
    02:00 +15°C° 0 mm 2 m/s 749 mmHg 85%
    03:00 +15°C° 0 mm 1 m/s 749 mmHg 86%
    04:00 +16°C° 0 mm 1 m/s 749 mmHg 83%
    05:00 +16°C° 0 mm 1 m/s 749 mmHg 80%
    06:00 +18°C° 0 mm 1 m/s 749 mmHg 78%
    07:00 +20°C° 0 mm 2 m/s 749 mmHg 67%
    08:00 +23°C° 0 mm 2 m/s 749 mmHg 56%
    09:00 +26°C° 0 mm 2 m/s 749 mmHg 46%
    10:00 +26°C° 0 mm 3 m/s 749 mmHg 44%
    11:00 +27°C° 0 mm 4 m/s 749 mmHg 43%
    12:00 +28°C° 0 mm 5 m/s 749 mmHg 41%
    13:00 +27°C° 0 mm 6 m/s 748 mmHg 44%
    14:00 +27°C° 0 mm 6 m/s 748 mmHg 47%
    15:00 +26°C° 0 mm 6 m/s 748 mmHg 50%
    16:00 +24°C° 0 mm 6 m/s 748 mmHg 54%
    17:00 +22°C° 0 mm 6 m/s 749 mmHg 57%
    18:00 +21°C° 0 mm 6 m/s 749 mmHg 61%
    19:00 +20°C° 0 mm 5 m/s 750 mmHg 66%
    20:00 +17°C° 0 mm 5 m/s 750 mmHg 72%
    21:00 +17°C° 0 mm 4 m/s 751 mmHg 77%
    22:00 +17°C° 0 mm 4 m/s 751 mmHg 77%
    23:00 +16°C° 0 mm 5 m/s 751 mmHg 76%
    Arată mai mult